Flag for Germany Weather past 2 weeks in Springe, Lower Saxony, Germany

Now
36 °F

Partly cloudy.


Feels Like: 31 °F
Forecast: 36 / 41 °F
Wind: 6 mph from West

Location: Wunstorf Airport

Current Time: Jan 28, 2015 at 12:09:24 AM

Latest Report: Jan 27, 2015 at 11:20 PM


Visibility: N/A

Pressure: 30.09 "Hg

Humidity: 100%

Dew point: 36 °F

Location of SpringeLocation

Historic Weather in Springe — Graph

°F

Springe temperature yesterday

Maximum temperature yesterday: 41 °F (at 12:20 PM)
Minimum temperature yesterday: 36 °F (at 3:20 AM)
Average temperature yesterday: 37 °F

Past Weeks' High & Low Weather Summary

 TemperatureHumidityPressure
High52 °F (Jan 13, 10:20 AM)100% (Jan 13, 5:20 PM)30.33 "Hg (Jan 13, 5:20 PM)
Low23 °F (Jan 21, 6:20 AM)61% (Jan 16, 10:20 AM)29.42 "Hg (Jan 15, 5:20 PM)
Average36 °F85%29.93 "Hg
* Reported Jan 12 10:20 PM — Jan 27 10:20 PM, Springe, Weather by CustomWeather, © 2014

Note: Actual official high and low records may vary slightly from our data, if they occured in-between our weather recording intervals... More about our weather records

Advertising

Springe weather history for previous 24 hours

 ConditionsComfort  
Time TempWeatherWind HumidityBarometerVisibility
10:20 PM
Jan 27
36 °FPassing clouds.8 mph93%30.09 "HgN/A
9:20 PM36 °FPassing clouds.7 mph93%30.09 "HgN/A
8:20 PM36 °FPassing clouds.6 mph93%30.09 "HgN/A
7:20 PM37 °FPartly cloudy.8 mph93%30.09 "HgN/A
6:20 PM37 °FPartly cloudy.8 mph93%30.09 "HgN/A
5:20 PM37 °FPassing clouds.6 mph93%30.09 "HgN/A
4:20 PM39 °FScattered clouds.9 mph87%30.07 "HgN/A
3:20 PM41 °FPartly sunny.10 mph81%30.07 "HgN/A
2:20 PM41 °FBroken clouds.13 mph81%30.07 "HgN/A
1:20 PM41 °FScattered clouds.17 mph81%30.07 "HgN/A
12:20 PM41 °FScattered clouds.16 mph81%30.07 "HgN/A
11:20 AM39 °FScattered clouds.14 mph87%30.07 "HgN/A
10:20 AM37 °FScattered clouds.15 mph87%30.07 "HgN/A
9:20 AM36 °FScattered clouds.14 mph93%30.07 "HgN/A
8:20 AM36 °FSprinkles. Broken clouds.8 mph93%30.04 "Hg5 mi
7:53 AM36 °FSprinkles. Passing clouds.13 mph93%30.04 "HgN/A
7:20 AM36 °FPartly cloudy.12 mph93%30.04 "HgN/A
6:20 AM36 °FPassing clouds.14 mph93%30.01 "HgN/A
5:20 AM36 °FPartly cloudy.16 mph93%30.01 "HgN/A
4:20 AM36 °FPartly cloudy.14 mph93%30.01 "HgN/A
3:20 AM36 °FPartly cloudy.15 mph93%29.98 "HgN/A
2:20 AM37 °FPassing clouds.15 mph93%29.98 "HgN/A
1:20 AM37 °FPassing clouds.15 mph93%29.98 "HgN/A
12:20 AM37 °FPartly cloudy.16 mph93%29.98 "HgN/A
Weather by CustomWeather, © 2014

See weather overviewHow to use our weather pages